Location: Tamazert
(32.6352°N, 5.2072°W)
Time: 04:22:57
(UTC+00:00)

Resurs 1-4 Rocket - Pass Details

Date: 22 May 2022
Orbit: 800 x 814 km, 98.7° (Epoch: 24 June)

Event Time Altitude Azimuth Distance (km) Brightness Sun altitude
Rises 01:24:45 0° 20° (NNE) 3,313 6.3 -34.6°
Reaches altitude 10° 01:27:10 10° 25° (NNE) 2,380 5.3 -34.5°
Enters shadow 01:30:35 36° 52° (NE) 1,253 3.4 -34.2°
